Weather History for KCTB - September, 2013

Change the Weather History Date:

Sunday, September 15, 2013

  Actual Average Record
Temperature  
Mean Temperature 60 °F 54 °F  
Max Temperature 78 °F 68 °F 91 °F (2000)
Min Temperature 42 °F 40 °F 21 °F (1912)
Degree Days  
Heating Degree Days 5 11  
Month to date heating degree days 16 135  
Since 1 July heating degree days 88 329  
Cooling Degree Days 0 0  
Month to date cooling degree days 28 6  
Year to date cooling degree days 223 159  
Growing Degree Days 10 (Base 50)    
Moisture  
Dew Point 44 °F    
Average Humidity 57    
Maximum Humidity 82    
Minimum Humidity 32    
Precipitation  
Precipitation 0.00 in 0.04 in 0.78 in (1993)
Month to date precipitation 2.00 0.67  
Year to date precipitation 13.02 9.33  
Snow  
Snow 0.00 in - - ()
Snow Depth 0.00 in    
Sea Level Pressure  
Sea Level Pressure 30.00 in    
Wind  
Wind Speed 8 mph (ESE)    
Max Wind Speed 21 mph    
Max Gust Speed 31 mph    
Visibility 10 miles    
Events      
T = Trace of Precipitation, MM = Missing Value Source: NWS Daily Summary

Daily Weather History Graph

Daily Weather History Graph

Search for Another Location

Airport or City:

Trip Planner

Search our weather history database for the weather conditions in past years. The results will help you decide how hot, cold, wet, or windy it might be!

Date:

Astronomy

Sep. 15, 2013 Rise Set
Actual Time 7:06 AM MDT 7:41 PM MDT
Civil Twilight 6:35 AM MDT 8:13 PM MDT
Nautical Twilight 5:57 AM MDT 8:50 PM MDT
Astronomical Twilight 5:18 AM MDT 9:29 PM MDT
Moon 5:25 PM MDT (9/15) 2:32 AM MDT (9/15)
Length of Visible Light 13h 37m
Length of Day
12h 34m
Waxing Gibbous, 82% of the Moon is Illuminated
Sep 15
Waxing Gibbous
Sep 19
Full
Sep 26
Last Quarter
Oct 4
New
Oct 11
First Quarter

Hourly Weather History & Observations

Time (MDT) Temp. Windchill Dew Point Humidity Pressure Visibility Wind Dir Wind Speed Gust Speed Precip Events Conditions
12:56 AM 54.0 °F - 37.9 °F 55% 30.12 in 10.0 mi South 4.6 mph - N/A   Clear
1:56 AM 54.0 °F - 39.0 °F 57% 30.11 in 10.0 mi Calm Calm - N/A   Clear
2:56 AM 46.9 °F - 39.0 °F 74% 30.12 in 10.0 mi NNE 3.5 mph - N/A   Clear
3:56 AM 48.0 °F - 37.9 °F 68% 30.11 in 10.0 mi ENE 4.6 mph - N/A   Clear
4:56 AM 44.1 °F - 37.9 °F 79% 30.12 in 10.0 mi Calm Calm - N/A   Clear
5:56 AM 45.0 °F 41.2 °F 37.9 °F 76% 30.10 in 10.0 mi East 6.9 mph - N/A   Clear
6:56 AM 43.0 °F - 37.9 °F 82% 30.11 in 10.0 mi Calm Calm - N/A   Clear
7:56 AM 46.0 °F - 39.9 °F 79% 30.12 in 10.0 mi Calm Calm - N/A   Clear
8:56 AM 51.1 °F - 41.0 °F 68% 30.12 in 10.0 mi Calm Calm - N/A   Clear
9:56 AM 55.9 °F - 41.0 °F 57% 30.09 in 10.0 mi Variable 4.6 mph - N/A   Clear
10:56 AM 62.1 °F - 42.1 °F 48% 30.07 in 10.0 mi SE 10.4 mph - N/A   Clear
11:56 AM 66.0 °F - 44.1 °F 45% 30.04 in 10.0 mi SE 13.8 mph - N/A   Clear
12:56 PM 70.0 °F - 45.0 °F 41% 30.02 in 10.0 mi SE 13.8 mph 24.2 mph N/A   Clear
1:56 PM 73.9 °F - 46.0 °F 37% 29.99 in 10.0 mi SE 17.3 mph 21.9 mph N/A   Clear
2:56 PM 75.9 °F - 46.0 °F 35% 29.96 in 10.0 mi SE 13.8 mph 23.0 mph N/A   Clear
3:56 PM 77.0 °F - 46.0 °F 33% 29.93 in 10.0 mi SSE 17.3 mph 24.2 mph N/A   Clear
4:56 PM 78.1 °F - 46.0 °F 32% 29.91 in 10.0 mi SE 13.8 mph 21.9 mph N/A   Clear
5:56 PM 75.0 °F - 46.0 °F 36% 29.89 in 10.0 mi SE 15.0 mph - N/A   Clear
6:56 PM 73.9 °F - 46.9 °F 38% 29.88 in 10.0 mi SSE 13.8 mph - N/A   Clear
7:56 PM 68.0 °F - 48.0 °F 49% 29.87 in 10.0 mi East 5.8 mph - N/A   Clear
8:56 PM 68.0 °F - 48.9 °F 50% 29.86 in 10.0 mi East 8.1 mph - N/A   Clear
9:56 PM 66.0 °F - 50.0 °F 56% 29.85 in 10.0 mi ESE 9.2 mph - N/A   Clear
10:56 PM 63.0 °F - 51.1 °F 65% 29.82 in 10.0 mi ESE 10.4 mph - N/A   Clear
11:56 PM 61.0 °F - 51.1 °F 70% 29.80 in 10.0 mi East 4.6 mph - N/A   Clear